Showing default

ESSA 8 (TOS-F), 3615

Orbit data source: Space-Track

ESSA 8 (TOS-F), 3615 is a payload satellite owned by ESSA (US) in SSO that was launched on Sun, 15 Dec 1968 UTC via a THOR DELTA N launch vehicle from the Air Force Western Test Range (AFWTR). Payloads include a variety of satellites, spacecraft, and rockets equipped with specific instruments for various scientific and technological missions. These include communications satellites like Starlink; space stations such as the ISS; scientific satellites like the Hubble; Earth observation satellites from companies like Planet Labs, Umbra, and HawkEye 360; GPS; miniature CubeSats for education and research; and military/defense satellites.

Loading next visibility...
ESSA 8 (TOS-F) details
Identifier
3615, 1968-114A
Orbit
SSO
Last TLE update9 hours ago
Origin
Flag of USESSA (US)
ManufacturerRCA/East Windsor
MissionNon-operational Civil Weather
Bus & MotorTIROS I, Unknown motor
Mass131 kg wet, 131 kg dry
Launch date (UTC)
1968-12-15 (56 years ago)
Launch vehicle
THOR DELTA N
Launch site
Air Force Western Test Range (AFWTR)
Object type
Payload
Rocket body
Debris
Shape & HBRCyl, 1.07 m
Radar Cross Section0.920 m², Medium (>0.1 m² and < 1m²)

Expand to show TLE details & history

TLE from 9 hours ago
0 ESSA 8 (TOS-F)
1 03615U 68114A   24361.43415294 -.00000036  00000-0  53990-4 0  9993
2 03615 101.6278 306.3883 0031652 289.1722  70.5928 12.56238098569039
Epoch: 2024-12-26T10:25Z
Definitive object data (Epoch: 2024-12-26T10:25:10.814Z)
Latitude0.00005°
Longitude54.67963°
Altitude1,432.944 km
Speed7.149 km/s
True Right ascension20h 25m 33s
True Declination0° 00' 00"
Sunlit
Object was in daylight at TLE epoch
Visualization TLE readout
Latitude-64.07942°
Longitude79.97424°
Altitude1,438.176 km
Speed7.153 km/s
Apparent Right ascension04h 02m 47s
Apparent Declination-72° 10' 22"
Sunlit
Object is in daylight
Visualization observer readout
Local Sidereal Time19:00:08
Azimuth160.056° S
Elevation-51.15°
Doppler factor1
Orbital elements
Apogee altitude1,460.776 km
Perigee altitude1,411.309 km
Semi-major axis7,814.179 km
Eccentricity0.0031652
Inclination101.6278°
RAAN306.3883°
Arg. of periapsis289.1722°
True anomaly70.93534°
Mean anomaly70.5928°
Eccentric anomaly70.76403°
Mean motion3.14209 °/min
BSTAR0.00005399
Orbital period114.57 mins
Loading maneuver chart data...
Loading historical data...
Loading historical data...
Loading historical data...
Loading historical data...
Loading historical data...
Loading historical data...
Loading historical data...

ESSA 8 (TOS-F) Visibility forecast

Observer location: undefined°, undefined

Span
Click to sort rows by Start time (UTC) header in descending order
Start Az.
Max El. time (UTC)
Max El. Az.
Max El.
End time (UTC)
End Az.
15 mins2024-12-26 20:04:27.122Z152.933° SSE2024-12-26 20:11:27.122Z96.625° ESE44.097°2024-12-26 20:19:27.122Z346.097° N
10 mins2024-12-26 22:00:27.122Z227.735° WSW2024-12-26 22:05:27.122Z270.549° WNW20.275°2024-12-26 22:10:27.122Z310.634° NW
11 mins2024-12-27 08:07:27.122Z52.041° ENE2024-12-27 08:12:27.122Z97.039° ESE22.985°2024-12-27 08:18:27.122Z145.29° SSE
15 mins2024-12-27 09:58:27.122Z10.984° NNE2024-12-27 10:05:27.122Z284.578° WNW43.114°2024-12-27 10:13:27.122Z211.053° SW
7 mins2024-12-27 11:53:27.122Z334.663° NNW2024-12-27 11:56:27.122Z311.001° NW15.407°2024-12-27 12:00:27.122Z280.965° WNW
12 mins2024-12-27 19:04:27.122Z110.396° ESE2024-12-27 19:09:27.122Z61.378° ENE29.376°2024-12-27 19:16:27.122Z0.153° NNE
|